WA6ODQ-13 Weather Reports


time (UTC)temp
C
wind
direction
speed
KPH
gust
KPH
rain 1hr
cm
rain 24hr
cm
rain mn
cm
humidity
%
barometer
mb
20260506213231 25 307 3.2 4.8 0.00 0.00 0.00 52 1017.3
20260506212729 26 346 4.8 4.8 0.00 0.00 0.00 50 1017.4
20260506212224 25 344 4.8 4.8 0.00 0.00 0.00 51 1017.4
20260506211719 25 339 3.2 3.2 0.00 0.00 0.00 52 1017.4
20260506211216 25 1 6.4 9.7 0.00 0.00 0.00 54 1017.4
20260506210713 25 104 0.0 0.0 0.00 0.00 0.00 53 1017.3
20260506210210 25 271 1.6 3.2 0.00 0.00 0.00 53 1017.5
20260506205708 25 99 0.0 0.0 0.00 0.00 0.00 54 1017.3
20260506205208 24 309 1.6 1.6 0.00 0.00 0.00 54 1017.6
20260506204705 24 350 4.8 4.8 0.00 0.00 0.00 55 1017.6
20260506204202 25 274 1.6 3.2 0.00 0.00 0.00 54 1017.6
20260506203700 23 263 0.0 1.6 0.00 0.00 0.00 56 1017.6
20260506203157 23 49 0.0 0.0 0.00 0.00 0.00 60 1017.9
20260506202655 23 1 4.8 9.7 0.00 0.00 0.00 55 1017.7
20260506202151 23 352 6.4 6.4 0.00 0.00 0.00 55 1017.9
20260506201648 23 356 1.6 1.6 0.00 0.00 0.00 58 1017.9
20260506201144 22 161 1.6 1.6 0.00 0.00 0.00 58 1017.8
20260506200641 22 162 3.2 4.8 0.00 0.00 0.00 59 1018.0
20260506200138 23 293 3.2 3.2 0.00 0.00 0.00 57 1017.9
20260506195635 23 332 0.0 0.0 0.00 0.00 0.00 57 1018.0
20260506195131 22 359 0.0 1.6 0.00 0.00 0.00 59 1018.3
20260506194629 22 177 0.0 0.0 0.00 0.00 0.00 61 1018.2
20260506194124 22 99 1.6 1.6 0.00 0.00 0.00 63 1018.3
20260506193623 22 5 0.0 0.0 0.00 0.00 0.00 62 1018.2
20260506193119 22 4 4.8 6.4 0.00 0.00 0.00 59 1018.6
20260506192616 22 115 0.0 0.0 0.00 0.00 0.00 64 1018.6
20260506192112 21 349 1.6 1.6 0.00 0.00 0.00 63 1018.5
20260506191609 21 356 4.8 9.7 0.00 0.00 0.00 61 1018.8
20260506191105 21 356 0.0 0.0 0.00 0.00 0.00 65 1018.7
20260506190602 22 281 3.2 4.8 0.00 0.00 0.00 59 1018.8
20260506190059 22 352 0.0 1.6 0.00 0.00 0.00 63 1018.6
20260506185556 22 21 0.0 1.6 0.00 0.00 0.00 61 1018.6
20260506185053 22 284 3.2 4.8 0.00 0.00 0.00 61 1018.7
20260506184550 22 9 0.0 0.0 0.00 0.00 0.00 63 1018.7
20260506184047 22 119 0.0 0.0 0.00 0.00 0.00 66 1018.7
20260506183543 22 189 1.6 1.6 0.00 0.00 0.00 67 1018.7
20260506183040 23 324 1.6 1.6 0.00 0.00 0.00 63 1018.7
20260506182537 23 345 0.0 0.0 0.00 0.00 0.00 64 1018.9
20260506182035 22 105 0.0 0.0 0.00 0.00 0.00 66 1018.7
20260506181533 22 317 3.2 3.2 0.00 0.00 0.00 67 1018.8
20260506181029 21 192 1.6 3.2 0.00 0.00 0.00 71 1018.8
20260506180525 21 100 0.0 0.0 0.00 0.00 0.00 71 1018.9
20260506180022 20 183 0.0 0.0 0.00 0.00 0.00 72 1018.9
20260506175519 20 353 0.0 0.0 0.00 0.00 0.00 71 1018.9
20260506175015 21 354 1.6 1.6 0.00 0.00 0.00 72 1018.8
20260506174514 21 336 0.0 1.6 0.00 0.00 0.00 70 1019.2
20260506174009 20 333 0.0 1.6 0.00 0.00 0.00 71 1019.1
20260506173508 20 327 1.6 1.6 0.00 0.00 0.00 72 1019.1
20260506173004 20 243 0.0 0.0 0.00 0.00 0.00 74 1018.8
20260506172502 19 326 0.0 0.0 0.00 0.00 0.00 74 1019.0
20260506171957 18 340 3.2 3.2 0.00 0.00 0.00 75 1018.8
20260506171455 19 340 1.6 1.6 0.00 0.00 0.00 75 1018.7
20260506170953 19 340 0.0 0.0 0.00 0.00 0.00 75 1018.8
20260506170449 18 340 0.0 0.0 0.00 0.00 0.00 75 1018.8
20260506165948 18 168 1.6 1.6 0.00 0.00 0.00 76 1018.9
20260506165446 18 168 1.6 1.6 0.00 0.00 0.00 77 1018.8
20260506164942 18 181 0.0 0.0 0.00 0.00 0.00 76 1018.9
20260506164439 17 160 0.0 0.0 0.00 0.00 0.00 77 1018.8
20260506163936 17 196 0.0 0.0 0.00 0.00 0.00 78 1018.9
20260506163431 17 158 0.0 0.0 0.00 0.00 0.00 79 1018.7
20260506162926 17 160 0.0 1.6 0.00 0.00 0.00 79 1018.7
20260506162424 16 156 0.0 1.6 0.00 0.00 0.00 80 1018.8
20260506161916 16 160 0.0 0.0 0.00 0.00 0.00 81 1018.6
20260506161414 16 185 1.6 1.6 0.00 0.00 0.00 80 1018.7
20260506160911 16 136 1.6 3.2 0.00 0.00 0.00 80 1018.7
20260506160408 16 167 3.2 3.2 0.00 0.00 0.00 81 1018.8
20260506155906 16 171 3.2 3.2 0.00 0.00 0.00 81 1018.7
20260506155403 16 195 3.2 4.8 0.00 0.00 0.00 82 1018.9
20260506153525 15 195 1.6 3.2 0.00 0.00 0.00 82 1018.8
20260506153022 15 132 0.0 0.0 0.00 0.00 0.00 83 1018.8
20260506152519 15 152 1.6 3.2 0.00 0.00 0.00 83 1018.8
20260506152018 15 186 3.2 3.2 0.00 0.00 0.00 82 1018.8
20260506151515 15 188 1.6 1.6 0.00 0.00 0.00 83 1018.6
20260506151012 15 123 1.6 1.6 0.00 0.00 0.00 84 1018.6
20260506150508 15 200 1.6 1.6 0.00 0.00 0.00 83 1018.8
20260506150005 15 150 3.2 3.2 0.00 0.00 0.00 84 1018.7
20260506145501 15 221 3.2 3.2 0.00 0.00 0.00 84 1018.5
20260506144959 15 221 0.0 0.0 0.00 0.00 0.00 83 1018.5
20260506144455 15 221 0.0 0.0 0.00 0.00 0.00 83 1018.7
20260506143954 15 221 0.0 0.0 0.00 0.00 0.00 84 1018.5
20260506143450 15 221 0.0 0.0 0.00 0.00 0.00 84 1018.2
20260506142949 15 221 0.0 0.0 0.00 0.00 0.00 85 1018.4
20260506142446 14 221 0.0 0.0 0.00 0.00 0.00 85 1018.2
20260506141944 14 221 0.0 0.0 0.00 0.00 0.00 85 1018.1
20260506141442 14 221 0.0 0.0 0.00 0.00 0.00 86 1018.2
20260506140940 14 221 0.0 0.0 0.00 0.00 0.00 86 1018.2
20260506140437 14 221 0.0 1.6 0.00 0.00 0.00 86 1018.2
20260506135933 14 221 0.0 0.0 0.00 0.00 0.00 87 1018.2
20260506135431 13 221 0.0 0.0 0.00 0.00 0.00 87 1018.3
20260506134927 13 221 0.0 0.0 0.00 0.00 0.00 86 1018.0
20260506134423 13 221 0.0 0.0 0.00 0.00 0.00 87 1017.9
20260506133920 13 221 0.0 0.0 0.00 0.00 0.00 86 1017.8
20260506133417 13 221 0.0 0.0 0.00 0.00 0.00 86 1017.9
20260506132913 13 221 0.0 0.0 0.00 0.00 0.00 86 1017.8
20260506132411 13 221 0.0 0.0 0.00 0.00 0.00 87 1018.0
20260506131909 13 221 0.0 0.0 0.00 0.00 0.00 87 1017.7
20260506131404 13 221 0.0 0.0 0.00 0.00 0.00 87 1017.7
20260506130902 13 221 0.0 0.0 0.00 0.00 0.00 86 1017.7
20260506130358 13 221 0.0 0.0 0.00 0.00 0.00 86 1017.8
20260506125856 13 221 0.0 0.0 0.00 0.00 0.00 85 1017.8
20260506125354 13 221 0.0 0.0 0.00 0.00 0.00 86 1017.7
20260506124852 13 221 0.0 0.0 0.00 0.00 0.00 86 1017.5
20260506124349 13 221 0.0 0.0 0.00 0.00 0.00 85 1017.6
20260506123847 13 221 1.6 1.6 0.00 0.00 0.00 85 1017.4
20260506123345 13 221 1.6 1.6 0.00 0.00 0.00 85 1017.4
20260506122842 13 134 1.6 1.6 0.00 0.00 0.00 85 1017.5
20260506122339 13 197 1.6 1.6 0.00 0.00 0.00 85 1017.6
20260506121838 13 200 1.6 1.6 0.00 0.00 0.00 85 1017.5
20260506121334 13 165 0.0 1.6 0.00 0.00 0.00 84 1017.4
20260506120831 13 183 1.6 1.6 0.00 0.00 0.00 84 1017.5
20260506120329 13 177 1.6 1.6 0.00 0.00 0.00 85 1017.5
20260506115826 13 164 1.6 3.2 0.00 0.00 0.00 85 1017.5
20260506115324 13 159 1.6 1.6 0.00 0.00 0.00 85 1017.5
20260506114821 13 159 1.6 1.6 0.00 0.00 0.00 85 1017.0
20260506114319 13 201 0.0 0.0 0.00 0.00 0.00 85 1017.3
20260506113817 13 196 3.2 3.2 0.00 0.00 0.00 84 1017.2
20260506113315 13 148 1.6 1.6 0.00 0.00 0.00 84 1017.1
20260506112811 13 174 3.2 3.2 0.00 0.00 0.00 84 1017.2
20260506112308 13 194 0.0 0.0 0.00 0.00 0.00 85 1017.3
20260506111806 14 194 1.6 1.6 0.00 0.00 0.00 84 1017.1
20260506111304 14 200 0.0 0.0 0.00 0.00 0.00 84 1016.8
20260506110801 14 214 0.0 1.6 0.00 0.00 0.00 84 1016.9
20260506110258 14 214 1.6 1.6 0.00 0.00 0.00 84 1016.9
20260506105754 14 265 1.6 1.6 0.00 0.00 0.00 84 1016.8
20260506105251 14 196 0.0 1.6 0.00 0.00 0.00 84 1017.0
20260506104749 14 179 3.2 4.8 0.00 0.00 0.00 83 1017.0
20260506104246 14 179 3.2 3.2 0.00 0.00 0.00 83 1016.8
20260506103744 14 191 0.0 0.0 0.00 0.00 0.00 83 1016.5
20260506103241 14 187 1.6 1.6 0.00 0.00 0.00 83 1016.8
20260506102738 14 187 1.6 3.2 0.00 0.00 0.00 82 1016.7
20260506102236 14 166 0.0 0.0 0.00 0.00 0.00 82 1016.6
20260506101733 14 162 0.0 1.6 0.00 0.00 0.00 82 1016.6
20260506101229 14 198 1.6 1.6 0.00 0.00 0.00 82 1016.8
20260506100728 14 202 1.6 3.2 0.00 0.00 0.00 82 1016.4
20260506100226 14 202 0.0 0.0 0.00 0.00 0.00 82 1016.8
20260506095724 14 202 1.6 3.2 0.00 0.00 0.00 82 1016.6
20260506095220 14 226 0.0 1.6 0.00 0.00 0.00 82 1016.5
20260506094717 14 192 3.2 4.8 0.00 0.00 0.00 82 1016.4
20260506094215 14 187 0.0 1.6 0.00 0.00 0.00 82 1016.5
20260506093714 15 176 3.2 3.2 0.00 0.00 0.00 82 1016.7
20260506093210 15 202 0.0 0.0 0.00 0.00 0.00 82 1016.5
20260506092708 15 343 1.6 1.6 0.00 0.00 0.00 81 1016.6
20260506092205 15 183 0.0 0.0 0.00 0.00 0.00 82 1016.7
20260506091703 15 183 0.0 1.6 0.00 0.00 0.00 81 1016.9
20260506091200 15 185 1.6 1.6 0.00 0.00 0.00 81 1016.5
20260506090658 15 185 1.6 3.2 0.00 0.00 0.00 82 1016.7
20260506090154 15 257 0.0 1.6 0.00 0.00 0.00 81 1016.7
20260506085651 15 176 0.0 0.0 0.00 0.00 0.00 82 1016.8
20260506085147 15 187 0.0 0.0 0.00 0.00 0.00 82 1016.6
20260506084644 14 192 0.0 0.0 0.00 0.00 0.00 82 1016.7
20260506084141 15 186 0.0 1.6 0.00 0.00 0.00 82 1016.5
20260506083638 14 206 1.6 1.6 0.00 0.00 0.00 82 1016.6
20260506083136 15 206 0.0 0.0 0.00 0.00 0.00 82 1016.6
20260506082632 15 185 1.6 1.6 0.00 0.00 0.00 82 1016.5
20260506082128 15 206 1.6 3.2 0.00 0.00 0.00 82 1016.5
20260506081626 14 202 3.2 3.2 0.00 0.00 0.00 82 1016.6
20260506081124 14 199 1.6 1.6 0.00 0.00 0.00 82 1016.7
20260506080621 14 224 1.6 3.2 0.00 0.00 0.00 82 1016.5
20260506080118 14 203 3.2 3.2 0.00 0.00 0.00 82 1016.6
20260506073101 15 176 0.0 0.0 0.00 0.00 0.00 80 1016.4
20260506072558 15 185 1.6 1.6 0.00 0.00 0.00 80 1016.2
20260506072056 15 189 4.8 6.4 0.00 0.00 0.00 80 1016.3
20260506071554 15 131 3.2 4.8 0.00 0.00 0.00 80 1016.2
20260506071051 15 232 1.6 1.6 0.00 0.00 0.00 80 1016.0
20260506070548 15 164 6.4 6.4 0.00 0.00 0.00 80 1016.0
20260506062022 15 195 3.2 4.8 0.00 0.10 0.10 80 1016.0
20260506061518 15 268 3.2 3.2 0.00 0.10 0.10 81 1015.7
20260506061016 15 190 3.2 4.8 0.00 0.10 0.10 81 1015.5
20260506060514 15 138 6.4 9.7 0.00 0.10 0.10 81 1015.6
20260506050943 15 217 4.8 6.4 0.00 0.10 0.10 80 1015.2
20260506050441 15 184 4.8 11.3 0.00 0.10 0.10 80 1014.9
20260506044931 15 163 6.4 9.7 0.00 0.10 0.10 80 1014.9
20260506044429 15 244 0.0 1.6 0.00 0.10 0.10 80 1014.9
20260506043926 15 206 4.8 6.4 0.00 0.10 0.10 80 1014.7
20260506043423 15 163 4.8 6.4 0.00 0.10 0.10 80 1014.9
20260506042921 15 173 3.2 4.8 0.00 0.10 0.10 80 1014.6
20260506042420 15 187 3.2 4.8 0.00 0.10 0.10 80 1014.8
20260506041918 15 257 3.2 4.8 0.00 0.10 0.10 80 1014.8
20260506041415 15 196 4.8 6.4 0.00 0.10 0.10 80 1014.8
20260506040912 15 188 1.6 1.6 0.00 0.10 0.10 79 1014.6
20260506040409 15 191 6.4 11.3 0.00 0.10 0.10 79 1014.6
20260506035905 15 178 6.4 11.3 0.00 0.10 0.10 79 1014.5
20260506035403 15 205 3.2 4.8 0.00 0.10 0.10 79 1014.5
20260506034900 15 197 3.2 4.8 0.00 0.10 0.10 78 1014.3
20260506034357 15 156 6.4 6.4 0.00 0.10 0.10 78 1014.4
20260506033854 15 194 0.0 0.0 0.00 0.10 0.10 79 1014.4
20260506033351 16 227 3.2 3.2 0.00 0.10 0.10 78 1014.1
20260506032848 16 153 3.2 4.8 0.00 0.10 0.10 78 1014.2
20260506032344 16 229 3.2 4.8 0.00 0.10 0.10 78 1014.2
20260506031841 16 145 3.2 3.2 0.00 0.10 0.10 78 1014.1
20260506031339 16 251 8.0 9.7 0.00 0.10 0.10 78 1014.1
20260506030836 16 204 6.4 9.7 0.00 0.10 0.10 78 1014.0
20260506030334 16 209 4.8 6.4 0.00 0.10 0.10 78 1014.2
20260506025831 16 243 4.8 4.8 0.00 0.10 0.10 78 1013.9
20260506025327 16 233 9.7 12.9 0.00 0.10 0.10 78 1013.8
20260506024824 16 217 4.8 9.7 0.00 0.10 0.10 78 1014.0
20260506024321 16 166 4.8 6.4 0.00 0.10 0.10 79 1013.6
20260506023817 16 189 3.2 4.8 0.00 0.10 0.10 78 1013.8
20260506023314 16 187 6.4 9.7 0.00 0.10 0.10 78 1013.9
20260506022811 16 158 1.6 3.2 0.00 0.10 0.10 78 1013.7
20260506022309 16 184 4.8 6.4 0.00 0.10 0.10 78 1013.7
20260506021807 16 204 6.4 9.7 0.00 0.10 0.10 78 1013.4
20260506021303 16 231 4.8 6.4 0.00 0.10 0.10 78 1013.3
20260506020800 16 218 4.8 6.4 0.00 0.10 0.10 77 1013.3
20260506020258 17 212 4.8 9.7 0.00 0.10 0.10 77 1013.4
20260506015755 17 178 4.8 4.8 0.00 0.10 0.10 76 1013.6
20260506015252 17 172 8.0 12.9 0.00 0.10 0.10 76 1013.7
20260506014749 17 181 4.8 6.4 0.00 0.10 0.10 76 1013.4
20260506014246 17 190 6.4 9.7 0.00 0.10 0.10 76 1013.5
20260506013743 17 204 4.8 6.4 0.00 0.10 0.10 76 1013.4
20260506013240 17 307 4.8 4.8 0.00 0.10 0.10 76 1013.4
20260506012736 17 173 8.0 9.7 0.00 0.10 0.10 75 1013.4
20260506012233 17 155 8.0 12.9 0.00 0.10 0.10 74 1013.4
20260506011731 17 168 4.8 6.4 0.00 0.10 0.10 74 1013.3
20260506011227 18 172 9.7 12.9 0.00 0.10 0.10 74 1013.3
20260506010725 18 198 6.4 6.4 0.00 0.10 0.10 74 1013.1
20260506010222 18 177 4.8 9.7 0.00 0.10 0.10 74 1013.2
20260506005720 18 239 4.8 6.4 0.00 0.10 0.10 73 1013.2
20260506005216 18 136 1.6 3.2 0.00 0.10 0.10 73 1013.2
20260506004712 18 183 4.8 6.4 0.00 0.10 0.10 72 1013.2
20260506004210 18 217 4.8 6.4 0.00 0.10 0.10 72 1013.2
20260506003706 18 181 6.4 9.7 0.00 0.10 0.10 72 1013.2
20260506003202 18 129 3.2 4.8 0.00 0.10 0.10 72 1013.1
20260506002658 18 224 3.2 4.8 0.00 0.10 0.10 72 1013.0
20260506002155 18 187 1.6 3.2 0.00 0.10 0.10 72 1013.0
20260506001650 18 188 6.4 9.7 0.00 0.10 0.10 72 1013.1
20260506001148 18 170 4.8 4.8 0.00 0.10 0.10 73 1012.8
20260506000645 18 171 6.4 6.4 0.00 0.10 0.10 72 1013.1
20260506000142 19 246 4.8 6.4 0.00 0.10 0.10 71 1012.9
20260505235640 18 224 4.8 6.4 0.00 0.10 0.10 71 1013.0
20260505235137 18 178 3.2 4.8 0.00 0.10 0.10 72 1013.0
20260505234634 18 212 3.2 3.2 0.00 0.10 0.10 71 1012.9
20260505234130 18 168 4.8 6.4 0.00 0.10 0.10 72 1013.1
20260505233628 18 233 8.0 12.9 0.00 0.10 0.10 71 1013.0
20260505233126 18 240 6.4 9.7 0.00 0.10 0.10 71 1013.0
20260505232623 18 207 4.8 6.4 0.00 0.10 0.10 72 1013.0
20260505232120 18 287 3.2 3.2 0.00 0.10 0.10 73 1013.2
20260505231617 18 240 6.4 9.7 0.00 0.10 0.10 73 1013.1
20260505231116 18 221 1.6 3.2 0.00 0.10 0.10 74 1013.2
20260505230614 17 238 1.6 3.2 0.00 0.10 0.10 75 1013.3
20260505230110 18 339 6.4 11.3 0.00 0.10 0.10 73 1013.1
20260505225606 18 336 1.6 3.2 0.00 0.10 0.10 74 1013.1
20260505225102 17 166 9.7 11.3 0.00 0.10 0.10 75 1013.4
20260505224559 17 226 6.4 9.7 0.00 0.10 0.10 76 1013.3
20260505224057 17 141 1.6 3.2 0.00 0.10 0.10 77 1013.4
20260505223554 17 164 4.8 4.8 0.00 0.10 0.10 76 1013.3
20260505223049 17 160 4.8 4.8 0.00 0.10 0.10 76 1013.3
20260505222546 17 198 1.6 3.2 0.00 0.10 0.10 75 1013.5
20260505222042 18 177 4.8 6.4 0.00 0.10 0.10 74 1013.4
20260505221539 18 189 3.2 4.8 0.00 0.10 0.10 74 1013.5
20260505221036 18 274 3.2 3.2 0.00 0.10 0.10 73 1013.5
20260505220533 18 152 3.2 4.8 0.00 0.10 0.10 73 1013.8
20260505220031 18 165 4.8 4.8 0.00 0.10 0.10 73 1013.7
20260505215529 19 146 1.6 6.4 0.00 0.10 0.10 72 1013.6
20260505215026 20 204 3.2 4.8 0.00 0.10 0.10 71 1013.4
20260505214524 21 336 1.6 3.2 0.00 0.10 0.10 67 1013.6
20260505214021 20 207 3.2 3.2 0.00 0.10 0.10 68 1013.6